Presure
164 152 160 148 133 134 106 132 156 171 140 135 134 142 145 156 160 159 152 152 163 153 149 314 218 245 248 240 169 104 236 238 160 124 156 131 126 130 132 133 95 140 134 131
164 138 131 125 137 141 143 146 136 138 143 148 149 147 169 158 154 162 159 154 154 148 146 191 129 165 160 208 218 272 156 142 130 213 128 142 142 134 129 135 142 141 133 129
130 207 109 132 138 148 161 141 152 157 159 163 161 162 161 159 134 131 158 168 181 136 140 159 163 166 155 207 156 162 129 151 142 183 157 139 136 136 143 145 143 130 143 146
101 143 146 139 141 140 169 174 167 168 183 126 125 130 138 167 137 206 174 301 140 172 270 255 153 224 234 255 141 169 151 137 185 138 102 126 133 141 137 134 134 138 142 143
153 150 137 146 157 158 176 198 148 205 137 191 321 198 354 152 150 164 141 164 134 133 132 230 238 157 223 222 254 254 134 139 137 163 147 139 137 139 135 140 141 148 159 144
156 147 151 272 279 206 132 206 147 229 147 286 315 321 329 344 273 248 144 157 164 137 135 133 165 202 216 178 139 148 142 193 144 135 109 127 147 127 134 145 143 143 151 154
150 297 302 139 132 207 131 317 142 291 308 290 294 305 299 312 335 352 363 391 283 149 149 144 164 142 141 139 137 135 149 167 182 148 142 142 150 145 144 146 158 158 154 181
202 169 283 115 280 131 277 261 291 302 300 304 309 307 312 294 315 326 345 326 296 287 197 174 150 151 153 149 146 142 144 142 143 144 143 146 144 141 149 152 153 157 156 170
219 282 298 143 238 126 256 250 197 292 304 300 317 310 299 306 321 303 299 314 301 304 203 183 197 163 159 154 145 143 144 144 147 149 177 193 213 184 158 166 203 165 165 182
173 237 138 288 229 142 269 264 281 278 292 276 281 308 296 289 310 300 282 291 282 289 270 203 196 182 166 194 160 223 173 176 176 200 189 194 197 189 203 173 176 165 169 167
279 200 142 207 158 249 152 274 272 257 268 276 265 283 271 267 285 291 304 264 268 284 263 260 199 211 188 175 198 190 191 207 167 169 186 178 195 187 168 169 189 166 173 175
268 152 259 133 261 204 137 269 261 273 259 254 256 265 261 265 284 292 274 289 267 253 273 236 220 239 203 200 183 202 195 183 177 174 209 190 205 214 179 180 188 186 184 183
185 255 268 176 157 279 245 274 275 268 275 269 260 258 264 199 275 285 261 274 253 257 268 233 239 213 222 190 191 237 200 187 200 199 186 184 203 179 177 176 195 190 180 190
152 218 214 285 230 280 206 286 239 167 145 210 281 237 183 267 276 281 235 192 269 232 242 255 238 229 223 258 223 210 230 210 224 209 206 221 204 193 197 213 194 192 190 188
220 150 270 263 133 258 252 168 135 141 324 309 288 284 191 293 285 293 242 264 241 237 215 249 230 246 254 219 214 241 206 199 201 216 189 127 200 200 181 192 180 198 202 182
245 174 191 187 108 250 164 250 193 247 248 263 202 268 275 238 308 229 191 307 283 192 234 234 242 242 230 228 230 227 198 201 204 188 96 98 214 201 205 205 199 171 187 205
137 196 193 190 236 235 234 213 208 236 254 106 239 256 119 231 175 248 198 232 137 278 246 226 244 235 254 228 248 215 219 214 213 205 215 209 190 203 210 216 203 216 208 193
220 159 229 176 158 164 213 144 195 150 194 180 139 168 113 240 120 199 298 294 184 259 179 224 252 212 225 255 242 237 199 203 213 217 197 197 200 220 214 214 204 214 213 204
179 193 198 197 184 206 135 226 139 146 151 158 150 135 139 121 146 150 125 139 253 250 245 204 249 245 222 203 220 251 235 209 194 172 204 213 203 205 223 209 241 216 222 210
188 199 203 189 187 182 183 168 207 153 209 171 130 168 123 162 206 140 228 121 111 123 237 159 183 159 226 206 203 218 204 189 182 245 236 240 213 201 210 192 220 230 206 223
188 188 193 202 201 183 156 177 150 163 168 164 159 169 166 144 145 149 197 196 137 255 209 173 202 161 155 201 97 206 193 208 215 225 229 223 258 229 219 203 209 215 217 210
196 190 184 184 189 174 190 198 172 173 187 166 141 141 140 146 153 139 170 137 145 176 165 172 181 184 165 214 186 259 227 233 298 308 245 242 232 325 464 416 276 261 244 226
193 192 190 192 195 189 191 171 183 181 186 144 159 142 193 153 159 136 141 133 133 134 144 159 152 178 144 147 258 206 272 282 288 285 389 276 275 413 382 446 429 241 243 234
198 201 195 196 193 185 179 187 193 163 202 189 175 149 186 168 129 157 176 192 143 207 145 194 225 190 173 194 236 188 241 257 257 321 423 454 420 417 379 404 410 362 382 432
207 205 203 201 197 196 197 193 195 189 200 197 193 199 141 139 155 145 159 130 182 171 174 174 152 146 159 179 241 230 256 276 310 285 456 434 399 454 355 350 432 411 384 426
223 225 234 226 226 233 200 200 199 195 189 194 201 198 171 190 217 145 189 148 171 150 137 181 205 202 205 207 205 268 264 280 266 335 448 420 389 355 346 479 390 383 377 391
Wind_Speed
46 41 47 34 32 33 33 31 51 54 44 49 42 57 56 60 64 63 61 66 73 70 61 67 63 78 72 59 76 51 71 71 67 40 60 41 43 49 49 54 48 58 56 50
43 30 24 19 28 38 42 43 37 40 44 52 55 56 58 61 55 67 64 67 71 63 57 63 57 69 80 56 67 75 72 59 52 77 43 54 51 54 54 59 64 61 53 53
16 10 27 24 31 41 48 37 47 51 52 56 57 62 65 62 34 37 56 70 58 50 49 66 67 67 77 56 69 78 54 70 66 61 71 58 52 57 65 62 68 56 72 73
20 24 30 26 29 27 48 52 53 54 59 33 36 37 42 57 42 59 67 60 50 68 64 71 70 75 66 68 51 65 66 61 67 62 41 48 56 64 65 62 64 73 75 75
32 32 22 32 37 40 49 51 24 7 28 62 30 62 24 42 55 68 55 71 52 53 51 71 75 74 67 64 74 76 54 63 67 82 70 66 64 68 61 70 76 81 81 78
31 27 32 18 35 14 12 10 23 12 32 5 31 34 43 38 5 19 63 71 74 59 64 63 67 79 69 65 60 71 69 76 66 66 52 65 77 51 61 77 77 77 80 82
26 37 40 24 16 13 9 47 21 30 37 18 25 24 19 32 26 26 24 26 21 77 78 74 77 81 71 65 59 63 69 62 83 79 77 77 85 79 81 81 83 84 82 91
9 28 34 19 43 7 43 36 42 43 32 27 30 24 33 19 33 39 36 47 33 37 84 80 83 85 84 82 77 76 77 77 78 83 80 86 87 80 87 85 83 84 83 86
6 38 48 18 26 9 38 34 18 47 44 41 31 28 28 29 34 43 39 34 52 45 85 82 83 89 87 86 79 77 75 77 82 86 84 91 100 95 87 87 99 87 85 94
19 13 7 48 22 25 41 43 47 47 45 47 47 41 37 39 31 38 49 57 55 60 77 84 87 84 77 78 86 92 86 87 87 88 90 96 99 99 100 90 89 90 86 87
48 4 19 2 11 12 15 50 42 27 43 47 33 40 33 31 23 30 37 60 62 49 81 86 84 85 83 81 82 85 87 95 86 88 89 91 101 96 88 90 97 88 96 96
24 20 30 7 33 6 13 40 41 33 34 28 33 32 27 21 15 29 48 40 66 76 83 89 90 94 83 82 80 90 89 86 88 89 111 98 111 115 96 97 106 105 103 107
11 35 33 9 13 40 32 37 34 34 33 23 29 26 20 6 18 13 58 51 75 78 75 86 95 87 94 80 79 112 95 90 99 103 93 95 110 93 95 89 111 112 106 115
9 13 21 44 28 50 18 33 21 10 14 9 26 12 8 18 15 15 58 29 55 76 86 74 92 96 92 92 89 92 108 101 114 110 114 116 111 108 112 122 109 107 107 105
35 7 51 53 19 50 49 19 18 13 36 27 28 31 9 15 6 7 71 64 76 74 47 79 88 93 81 90 90 104 91 91 99 118 98 51 109 110 85 108 90 123 129 99
50 15 21 20 7 51 7 46 19 42 39 40 14 31 29 21 28 6 9 9 38 10 82 89 63 95 96 104 101 103 80 80 99 71 33 36 124 116 124 121 114 87 91 138
2 23 27 22 44 41 40 25 21 34 40 13 30 33 18 21 6 17 8 10 5 47 79 63 85 88 71 87 87 97 104 104 100 102 119 114 84 112 132 133 124 133 137 112
40 14 42 11 13 15 29 4 20 6 18 6 10 16 23 17 20 8 18 9 15 38 10 51 53 44 73 75 89 111 91 73 102 120 88 100 96 142 129 137 118 135 141 120
19 11 18 16 6 24 11 31 11 12 12 5 10 18 13 19 10 12 24 11 47 50 62 32 45 87 90 47 67 89 111 96 79 69 104 125 99 103 139 108 154 132 132 129
6 10 10 3 2 4 4 17 22 25 26 9 23 12 22 13 17 13 6 19 36 31 68 30 17 28 101 67 71 102 93 81 78 121 139 148 128 96 122 77 143 154 114 148
6 5 6 10 10 1 24 9 28 15 9 8 12 12 27 27 38 22 13 10 27 8 30 49 44 53 65 67 37 83 78 100 122 131 142 138 150 152 137 96 109 120 133 112
8 7 9 8 7 8 10 12 10 11 5 18 31 28 38 24 29 39 26 34 44 26 21 30 23 27 52 42 52 60 60 67 76 86 115 117 116 101 73 90 152 167 164 145
13 13 13 13 13 12 13 11 11 13 14 29 15 33 22 13 22 24 39 45 47 43 58 10 44 27 55 59 55 59 68 76 74 72 103 80 86 68 67 64 71 126 132 135
19 19 18 18 18 17 18 18 20 19 24 20 23 38 21 15 25 17 20 32 28 38 44 36 51 46 46 62 71 66 81 81 79 98 91 67 66 63 58 59 59 62 66 59
27 27 25 23 22 24 24 23 24 22 28 27 26 30 33 37 30 32 32 36 36 43 30 31 54 61 60 62 83 83 92 100 107 92 67 63 61 56 55 57 47 40 54 53
33 32 27 29 29 25 29 30 30 29 26 29 34 32 22 32 40 48 41 45 42 55 52 59 63 69 74 79 81 95 97 103 90 106 65 61 58 53 55 31 38 37 37 29
Wind_Direction
231 234 236 241 250 253 242 260 253 241 258 258 263 260 264 257 253 255 254 251 248 253 261 226 243 233 236 223 251 275 208 208 254 263 258 271 277 280 286 284 273 282 289 289
233 240 243 235 258 260 257 258 266 265 263 257 256 259 257 259 255 255 251 249 250 254 255 245 255 238 251 238 226 209 255 262 272 223 275 269 265 279 281 285 276 277 285 289
236 201 216 264 262 259 256 268 262 259 259 257 256 251 252 253 253 244 248 242 247 252 254 247 240 234 255 229 246 250 268 256 266 238 257 274 281 281 275 273 280 286 286 285
224 252 255 262 269 264 258 255 257 259 254 245 246 255 252 250 262 241 246 221 255 241 219 219 244 240 231 221 251 254 261 273 237 279 282 281 287 282 286 286 287 287 285 287
251 253 274 270 263 271 264 259 272 300 254 257 59 249 51 263 258 248 259 246 259 258 261 222 223 238 231 221 213 208 275 276 279 258 275 280 286 283 286 282 282 278 269 285
253 264 267 105 81 93 240 324 289 11 282 127 58 64 51 52 358 272 256 246 243 257 258 260 238 236 234 248 270 264 270 230 271 281 284 283 278 282 280 280 282 286 279 279
268 104 101 241 224 77 257 61 319 66 70 106 82 65 92 62 55 62 89 118 197 247 247 250 239 258 267 272 272 275 265 254 239 267 279 282 275 280 281 281 274 274 281 262
245 267 95 234 86 258 66 65 62 67 61 49 56 54 72 84 80 79 88 123 129 167 221 236 250 254 251 258 264 267 270 271 273 274 276 273 276 280 276 277 279 280 282 274
167 99 92 210 88 290 67 59 11 68 69 72 69 73 80 71 90 103 103 133 143 153 218 233 226 243 247 255 265 268 272 273 272 269 252 240 229 247 274 272 243 276 277 265
264 117 326 82 72 306 74 70 70 65 81 80 69 88 86 74 69 115 145 149 154 162 174 218 227 238 246 228 253 214 248 248 251 239 245 242 242 250 242 268 265 276 278 282
89 43 286 54 321 106 340 75 84 85 90 89 91 85 96 98 99 120 113 162 165 171 178 184 226 220 240 249 230 239 240 228 264 266 253 263 246 256 275 275 257 279 276 275
101 250 84 225 89 103 4 71 88 83 93 111 104 97 122 130 124 118 147 169 174 182 181 200 213 205 230 231 248 229 239 256 262 264 235 252 242 242 267 268 259 262 265 266
123 93 93 345 242 82 75 71 71 77 80 93 122 135 134 104 151 125 166 173 184 183 185 202 203 223 216 243 241 210 233 251 238 240 257 262 243 267 270 268 253 256 269 261
240 104 92 93 89 81 45 65 53 282 281 73 102 110 158 149 147 166 196 196 185 205 198 199 209 217 224 212 223 233 220 235 227 234 239 238 245 254 254 244 258 262 265 261
78 240 87 83 285 78 73 52 301 260 84 92 88 83 143 82 99 80 193 194 202 207 229 204 216 211 216 230 231 219 234 246 247 232 260 270 244 254 273 263 272 257 256 270
81 32 50 23 250 77 141 72 63 68 68 72 83 79 77 67 87 276 265 105 198 222 208 213 221 213 223 225 226 224 257 245 248 267 277 281 241 255 251 253 260 268 271 255
265 48 68 48 78 75 77 72 68 63 68 259 67 64 316 61 16 58 270 71 285 220 216 220 221 222 229 235 228 240 235 238 242 253 244 250 266 257 253 251 260 255 257 267
82 350 82 13 14 13 68 260 55 288 43 11 278 335 317 53 295 344 78 144 281 233 288 245 238 253 244 245 237 231 241 269 252 243 263 254 266 248 254 256 263 259 257 265
350 53 78 71 39 77 346 74 302 332 308 339 285 295 258 284 303 296 269 295 222 223 229 270 245 232 242 290 266 248 240 258 279 264 262 252 266 267 253 270 251 263 263 268
139 94 90 129 71 310 54 344 73 334 75 0 287 328 269 329 5 296 347 332 321 286 232 348 327 336 242 281 286 254 271 265 296 263 255 250 263 277 274 283 262 257 273 262
327 339 26 57 71 284 327 343 334 328 353 343 12 20 224 314 334 281 272 326 316 344 256 260 276 339 331 289 280 275 290 273 269 268 265 266 262 261 265 277 266 269 268 273
344 319 300 304 340 282 359 2 302 291 358 337 322 322 327 342 341 337 338 319 340 358 319 340 287 285 318 281 300 316 278 277 305 299 269 268 268 281 289 276 261 261 262 272
315 315 315 321 327 324 327 293 331 307 339 283 251 304 348 296 344 335 316 333 338 339 330 270 308 283 306 293 318 298 321 327 320 311 322 280 275 293 290 285 279 269 266 271
303 306 305 308 307 308 315 317 326 303 326 335 296 280 324 281 336 250 325 330 323 326 315 321 337 324 301 324 327 319 326 327 322 329 321 307 306 300 292 288 282 277 274 278
296 296 296 295 299 301 305 309 313 311 319 323 314 326 279 290 269 328 320 331 316 328 306 320 310 315 310 325 334 328 334 336 335 325 314 312 307 299 295 291 283 272 271 280
297 300 309 302 303 311 297 302 307 310 315 319 320 323 292 308 323 283 315 298 315 301 327 330 329 328 335 329 329 337 337 337 329 337 317 315 310 304 301 279 266 277 286 299